DW1155 Weather Reports


Display with metric or nautical units.
time (UTC)temp
F
wind
direction
speed
MPH
gust
MPH
rain 1hr
in
rain 24hr
in
rain mn
in
humidity
%
barometer
mb
20260506103524 52 355 6.0 10.0 0.00 0.01 0.00 91 1019.3
20260506102522 51 1 4.0 6.0 0.00 0.01 0.00 91 1019.3
20260506101525 51 9 3.0 8.0 0.00 0.01 0.00 90 1019.2
20260506100522 51 360 5.0 8.0 0.00 0.01 0.00 90 1019.1
20260506095602 52 1 5.0 10.0 0.00 0.01 0.00 90 1019.1
20260506094520 52 357 7.0 10.0 0.00 0.01 0.00 90 1019.0
20260506093517 52 346 7.0 12.0 0.00 0.01 0.00 90 1018.9
20260506092524 53 331 8.0 11.0 0.00 0.01 0.00 90 1018.7
20260506091521 53 332 6.0 9.0 0.00 0.01 0.00 90 1018.7
20260506090518 53 329 5.0 8.0 0.00 0.02 0.00 90 1018.7
20260506085524 53 324 5.0 8.0 0.00 0.02 0.00 90 1018.8
20260506084537 53 336 4.0 6.0 0.00 0.02 0.00 90 1018.9
20260506083525 53 342 4.0 5.0 0.00 0.02 0.00 90 1018.9
20260506082520 53 346 4.0 5.0 0.00 0.02 0.00 90 1019.1
20260506081517 53 349 4.0 6.0 0.00 0.02 0.00 89 1019.2
20260506080524 53 358 4.0 6.0 0.00 0.03 0.00 89 1019.5
20260506073519 54 340 5.0 8.0 0.00 0.04 0.00 88 1019.1
20260506072516 54 342 4.0 9.0 0.00 0.04 0.00 88 1018.9
20260506071523 54 336 5.0 9.0 0.00 0.04 0.00 88 1018.8
20260506070520 55 341 4.0 6.0 0.00 0.04 0.00 87 1018.7
20260506061519 54 332 3.0 5.0 0.00 0.04 0.04 88 1018.2
20260506060516 55 321 3.0 6.0 0.00 0.04 0.04 87 1018.1
20260506050523 55 5 4.0 5.0 0.00 0.04 0.04 88 1017.5
20260506044522 55 13 3.0 5.0 0.00 0.04 0.04 88 1017.4
20260506043520 55 15 4.0 4.0 0.00 0.04 0.04 87 1017.0
20260506042525 56 15 3.0 5.0 0.00 0.04 0.04 87 1017.0
20260506041522 56 18 4.0 5.0 0.00 0.04 0.04 87 1017.0
20260506040539 57 16 3.0 4.0 0.00 0.04 0.04 86 1016.9
20260506035541 57 6 3.0 5.0 0.00 0.04 0.04 85 1016.8
20260506034536 58 349 3.0 5.0 0.00 0.04 0.04 84 1016.7
20260506033644 58 328 3.0 6.0 0.00 0.04 0.04 84 1016.7
20260506032520 59 338 4.0 5.0 0.00 0.04 0.04 83 1016.5
20260506031518 59 312 3.0 6.0 0.00 0.04 0.04 82 1016.3
20260506030525 60 304 4.0 7.0 0.00 0.04 0.04 82 1016.4
20260506025537 60 310 4.0 7.0 0.00 0.04 0.04 81 1016.3
20260506024524 60 301 4.0 7.0 0.00 0.04 0.04 81 1016.2
20260506023521 61 297 4.0 8.0 0.00 0.04 0.04 80 1016.3
20260506022517 61 295 4.0 8.0 0.00 0.04 0.04 79 1016.2
20260506021524 62 289 5.0 9.0 0.00 0.04 0.04 77 1016.1
20260506020521 63 303 4.0 9.0 0.00 0.04 0.04 75 1016.1
20260506015543 63 311 5.0 9.0 0.00 0.04 0.04 73 1015.9
20260506014520 64 318 6.0 9.0 0.00 0.04 0.04 72 1015.9
20260506013518 65 280 5.0 9.0 0.00 0.04 0.04 72 1015.9
20260506012525 65 314 4.0 10.0 0.00 0.04 0.04 69 1015.9
20260506011520 65 273 5.0 10.0 0.00 0.04 0.04 70 1016.0
20260506010517 65 299 6.0 10.0 0.00 0.04 0.04 68 1016.0
20260506005518 66 262 6.0 10.0 0.00 0.04 0.04 67 1016.0
20260506004525 65 300 7.0 10.0 0.00 0.04 0.04 68 1016.0
20260506003522 65 281 6.0 9.0 0.00 0.04 0.04 68 1016.0
20260506002539 64 270 6.0 11.0 0.00 0.04 0.04 70 1016.0
20260506001557 66 267 6.0 11.0 0.00 0.04 0.04 68 1015.9
20260506000524 65 256 6.0 11.0 0.00 0.04 0.04 69 1015.8
20260505235515 66 289 4.0 10.0 0.00 0.04 0.04 68 1015.9
20260505234523 65 260 6.0 10.0 0.00 0.04 0.04 70 1015.9
20260505233520 65 291 6.0 12.0 0.00 0.04 0.04 70 1015.9
20260505232545 65 281 8.0 12.0 0.00 0.04 0.04 71 1015.9
20260505231522 65 268 7.0 12.0 0.00 0.04 0.04 71 1015.9
20260505230520 65 274 7.0 12.0 0.00 0.04 0.04 71 1015.9
20260505225522 65 271 7.0 13.0 0.00 0.04 0.04 71 1015.8
20260505224519 64 276 9.0 13.0 0.00 0.04 0.04 72 1015.9
20260505223524 64 273 8.0 13.0 0.00 0.04 0.04 73 1015.8
20260505222542 65 298 7.0 12.0 0.00 0.04 0.04 72 1015.8
20260505221519 64 267 8.0 12.0 0.00 0.04 0.04 74 1016.0
20260505220516 62 278 6.0 12.0 0.00 0.04 0.04 75 1016.0
20260505215518 61 306 6.0 11.0 0.00 0.04 0.04 76 1016.1
20260505214523 61 322 5.0 10.0 0.00 0.04 0.04 76 1016.2
20260505213520 62 334 4.0 9.0 0.00 0.04 0.04 74 1016.2
20260505212518 62 319 4.0 8.0 0.00 0.04 0.04 74 1016.2
20260505211525 61 289 5.0 9.0 0.00 0.04 0.04 75 1016.3
20260505210542 61 306 4.0 10.0 0.00 0.04 0.04 75 1016.3
20260505205524 62 329 5.0 11.0 0.00 0.04 0.04 74 1016.3
20260505204522 62 331 6.0 12.0 0.00 0.04 0.04 75 1016.2
20260505203517 60 308 7.0 12.0 0.00 0.04 0.04 77 1016.2
20260505202524 60 292 8.0 12.0 0.00 0.04 0.04 78 1016.4
20260505201521 60 324 5.0 10.0 0.00 0.04 0.04 77 1016.4
20260505200518 59 278 5.0 10.0 0.00 0.04 0.04 79 1016.5
20260505195520 59 293 6.0 10.0 0.00 0.04 0.04 79 1016.5
20260505194515 59 278 5.0 11.0 0.00 0.04 0.04 79 1016.5
20260505193522 59 286 7.0 11.0 0.00 0.04 0.04 80 1016.5
20260505192520 60 294 5.0 11.0 0.00 0.04 0.04 79 1016.4
20260505191517 59 284 7.0 11.0 0.00 0.04 0.04 80 1016.4
20260505190524 58 304 6.0 10.0 0.00 0.04 0.04 83 1016.5
20260505185544 58 286 7.0 10.0 0.00 0.04 0.04 82 1016.5
20260505184521 58 309 6.0 10.0 0.00 0.04 0.04 82 1016.5
20260505183519 58 291 5.0 10.0 0.00 0.04 0.04 82 1016.3
20260505182516 58 320 6.0 10.0 0.00 0.04 0.04 83 1016.1
20260505181523 58 313 7.0 10.0 0.00 0.04 0.04 84 1016.0
20260505180521 57 305 6.0 12.0 0.00 0.04 0.04 84 1016.0
20260505175523 57 295 7.0 10.0 0.00 0.04 0.04 85 1015.9
20260505174520 57 317 6.0 10.0 0.00 0.04 0.04 86 1015.9
20260505173517 56 322 4.0 9.0 0.00 0.04 0.04 87 1016.1
20260505172522 56 333 5.0 9.0 0.00 0.04 0.04 88 1016.0
20260505171520 56 311 5.0 8.0 0.00 0.04 0.04 88 1015.9
20260505170517 55 326 4.0 8.0 0.00 0.04 0.04 88 1015.9
20260505165523 55 345 4.0 6.0 0.00 0.04 0.04 88 1016.0
20260505164516 55 341 3.0 6.0 0.00 0.04 0.04 88 1016.0
20260505163543 55 344 3.0 6.0 0.00 0.04 0.04 88 1016.0
20260505162540 55 349 3.0 6.0 0.00 0.04 0.04 89 1016.0
20260505161536 54 344 3.0 8.0 0.00 0.04 0.04 89 1015.9
20260505160523 54 354 4.0 8.0 0.00 0.04 0.04 90 1015.8
20260505152517 53 339 5.0 9.0 0.00 0.04 0.04 91 1015.8
20260505151524 53 344 5.0 9.0 0.00 0.04 0.04 92 1015.7
20260505150521 52 321 5.0 9.0 0.00 0.04 0.04 92 1015.5
20260505140515 52 5 1.0 3.0 0.01 0.04 0.04 92 1015.0
20260505124519 51 348 3.0 6.0 0.00 0.03 0.03 91 1014.9
20260505123516 51 335 5.0 8.0 0.00 0.03 0.03 91 1014.7
20260505122523 51 327 4.0 9.0 0.00 0.03 0.03 91 1014.7
20260505121521 51 312 5.0 8.0 0.00 0.03 0.03 91 1014.7
20260505120518 51 316 4.0 7.0 0.00 0.03 0.03 91 1014.7
20260505115520 51 316 4.0 6.0 0.00 0.03 0.03 91 1014.6
20260505114537 51 327 4.0 6.0 0.00 0.03 0.03 91 1014.8
20260505113524 51 327 4.0 5.0 0.00 0.03 0.03 91 1014.9
20260505112520 51 320 3.0 5.0 0.00 0.03 0.03 91 1014.9
20260505111536 52 318 3.0 5.0 0.00 0.03 0.03 91 1014.9
20260505110524 52 303 3.0 4.0 0.00 0.03 0.03 90 1014.9